Everett, WA

7:42 PM PST on December 14, 2019 (GMT -0800)
Snohomish County

Weather History for KPAE - October, 2019

Change the Weather History Date:

Friday, October 11, 2019

  Actual Average Record
Temperature  
Mean Temperature 50 °F -  
Max Temperature 61 °F 61 °F 72 °F (1950)
Min Temperature 39 °F 43 °F 31 °F (1972)
Degree Days  
Heating Degree Days 16    
Moisture  
Dew Point 35 °F    
Average Humidity 61    
Maximum Humidity 93    
Minimum Humidity 33    
Precipitation  
Precipitation 0.00 in - - ()
Sea Level Pressure  
Sea Level Pressure 30.17 in    
Wind  
Wind Speed 2 mph (NNE)    
Max Wind Speed 7 mph    
Max Gust Speed -    
Visibility 10 miles    
Events      
Averages and records for this station are not official NWS values.
T = Trace of Precipitation, MM = Missing Value Source: NWS Daily Summary

Daily Weather History Graph

Daily Weather History Graph

Search for Another Location

Airport or City:

Astronomy

Oct. 11, 2019 Rise Set
Actual Time 7:22 AM PDT 6:28 PM PDT
Civil Twilight 6:51 AM PDT 6:59 PM PDT
Nautical Twilight 6:15 AM PDT 7:35 PM PDT
Astronomical Twilight 5:39 AM PDT 8:11 PM PDT
Moon 6:13 PM PDT (10/11) 4:52 AM PDT (10/11)
Length of Visible Light 12h 08m
Length of Day
11h 06m
Waxing Gibbous, 96% of the Moon is Illuminated
Oct 11
Waxing Gibbous
Oct 13
Full
Oct 21
Last Quarter
Oct 27
New
Nov 4
First Quarter

Hourly Weather History & Observations

Time (PDT) Temp. Windchill Dew Point Humidity Pressure Visibility Wind Dir Wind Speed Gust Speed Precip Events Conditions
12:53 AM 42.1 °F - 35.1 °F 76% 30.29 in 10.0 mi Calm Calm - N/A   Clear
1:53 AM 41.0 °F - 36.0 °F 82% 30.29 in 10.0 mi Calm Calm - N/A   Clear
2:53 AM 42.1 °F 40.2 °F 39.0 °F 89% 30.27 in 10.0 mi NE 3.5 mph - N/A   Clear
3:53 AM 39.9 °F 37.8 °F 36.0 °F 86% 30.26 in 10.0 mi North 3.5 mph - N/A   Clear
4:53 AM 39.0 °F 35.7 °F 35.1 °F 86% 30.26 in 10.0 mi North 4.6 mph - N/A   Clear
5:53 AM 41.0 °F 39.0 °F 37.0 °F 86% 30.25 in 10.0 mi NNE 3.5 mph - N/A   Clear
6:53 AM 39.0 °F 36.8 °F 37.0 °F 93% 30.24 in 10.0 mi NW 3.5 mph - N/A   Clear
7:53 AM 39.0 °F - 36.0 °F 89% 30.24 in 10.0 mi Calm Calm - N/A   Clear
8:53 AM 46.9 °F - 32.0 °F 56% 30.22 in 10.0 mi Variable 3.5 mph - N/A   Clear
9:53 AM 46.9 °F - 37.0 °F 68% 30.22 in 10.0 mi NE 3.5 mph - N/A   Clear
10:53 AM 50.0 °F - 37.0 °F 61% 30.21 in 10.0 mi NNE 4.6 mph - N/A   Clear
11:53 AM 54.0 °F - 30.9 °F 41% 30.19 in 10.0 mi Calm Calm - N/A   Clear
12:53 PM 55.0 °F - 30.0 °F 38% 30.18 in 10.0 mi West 5.8 mph - N/A   Clear
1:53 PM 57.0 °F - 34.0 °F 42% 30.15 in 10.0 mi WNW 4.6 mph - N/A   Clear
2:53 PM 57.9 °F - 30.9 °F 36% 30.13 in 10.0 mi NNW 3.5 mph - N/A   Clear
3:53 PM 60.1 °F - 30.9 °F 33% 30.11 in 10.0 mi NNW 3.5 mph - N/A   Clear
4:53 PM 60.1 °F - 33.1 °F 36% 30.09 in 10.0 mi NNE 3.5 mph - N/A   Clear
5:53 PM 55.9 °F - 37.0 °F 49% 30.07 in 10.0 mi Calm Calm - N/A   Clear
6:53 PM 54.0 °F - 37.9 °F 55% 30.07 in 10.0 mi Calm Calm - N/A   Clear
7:53 PM 53.1 °F - 39.9 °F 61% 30.07 in 10.0 mi Calm Calm - N/A   Clear
8:53 PM 51.1 °F - 39.0 °F 63% 30.07 in 10.0 mi ESE 4.6 mph - N/A   Clear
9:53 PM 52.0 °F - 35.1 °F 53% 30.06 in 10.0 mi ESE 5.8 mph - N/A   Clear
10:53 PM 51.1 °F - 32.0 °F 48% 30.06 in 10.0 mi ESE 4.6 mph - N/A   Clear
11:53 PM 51.1 °F - 30.9 °F 46% 30.05 in 10.0 mi ESE 6.9 mph - N/A   Clear